Time,TemperatureF,DewpointF,PressureIn,WindDirection,WindDirectionDegrees,WindSpeedMPH,WindSpeedGustMPH,Humidity,HourlyPrecipIn,Conditions,Clouds,dailyrainin,SoftwareType,DateUTC
2013-02-08 00:15:00,13.8,3.0,30.44,NNE,13,3.0,-999.0,63,-99.99,,,0.00,weatherlink.com 1.10,2013-02-08 05:15:00,
2013-02-08 00:30:00,13.8,4.0,30.43,NNE,16,3.0,-999.0,64,-99.99,,,0.00,weatherlink.com 1.10,2013-02-08 05:30:00,
2013-02-08 00:45:00,13.9,4.0,30.43,NNE,16,2.0,-999.0,64,-99.99,,,0.00,weatherlink.com 1.10,2013-02-08 05:45:00,
2013-02-08 01:00:00,14.0,4.0,30.43,NNE,16,1.0,-999.0,65,-99.99,,,0.00,weatherlink.com 1.10,2013-02-08 06:00:00,
2013-02-08 01:15:00,14.0,5.0,30.41,NNE,16,3.0,-999.0,66,-99.99,,,0.00,weatherlink.com 1.10,2013-02-08 06:15:00,
2013-02-08 01:30:00,14.1,5.0,30.41,NNE,16,2.0,-999.0,66,-99.99,,,0.00,weatherlink.com 1.10,2013-02-08 06:30:00,
2013-02-08 01:45:00,14.4,5.0,30.41,NNE,16,2.0,-999.0,66,-99.99,,,0.00,weatherlink.com 1.10,2013-02-08 06:45:00,
2013-02-08 02:00:00,14.4,5.0,30.41,NNE,16,0.0,-999.0,65,-99.99,,,0.00,weatherlink.com 1.10,2013-02-08 07:00:00,
2013-02-08 02:15:00,14.4,5.0,30.40,NNE,15,4.0,-999.0,65,-99.99,,,0.00,weatherlink.com 1.10,2013-02-08 07:15:00,
2013-02-08 02:30:00,14.4,5.0,30.39,NNE,15,2.0,-999.0,65,-99.99,,,0.00,weatherlink.com 1.10,2013-02-08 07:30:00,
2013-02-08 02:45:00,14.3,5.0,30.39,NNE,15,3.0,-999.0,66,-99.99,,,0.00,weatherlink.com 1.10,2013-02-08 07:45:00,
2013-02-08 03:00:00,14.5,6.0,30.38,NNE,16,5.0,-999.0,68,-99.99,,,0.00,weatherlink.com 1.10,2013-02-08 08:00:00,
2013-02-08 03:15:00,14.5,6.0,30.36,NNE,27,3.0,-999.0,69,-99.99,,,0.00,weatherlink.com 1.10,2013-02-08 08:15:00,
2013-02-08 03:30:00,14.6,8.0,30.36,North,10,5.0,-999.0,74,-99.99,,,0.00,weatherlink.com 1.10,2013-02-08 08:30:00,
2013-02-08 03:45:00,14.6,9.0,30.34,North,9,2.0,-999.0,78,-99.99,,,0.00,weatherlink.com 1.10,2013-02-08 08:45:00,
2013-02-08 04:00:00,14.6,9.0,30.33,North,8,3.0,-999.0,78,-99.99,,,0.00,weatherlink.com 1.10,2013-02-08 09:00:00,
2013-02-08 04:15:00,14.6,10.0,30.33,North,8,3.0,-999.0,80,-99.99,,,0.00,weatherlink.com 1.10,2013-02-08 09:15:00,
2013-02-08 04:30:00,14.4,9.0,30.33,North,8,1.0,-999.0,80,-99.99,,,0.00,weatherlink.com 1.10,2013-02-08 09:30:00,
2013-02-08 04:46:00,14.5,10.0,30.32,North,8,1.0,-999.0,81,-99.99,,,0.00,weatherlink.com 1.10,2013-02-08 09:46:00,
2013-02-08 05:00:00,14.7,10.0,30.32,WNW,299,3.0,-999.0,82,-99.99,,,0.00,weatherlink.com 1.10,2013-02-08 10:00:00,
2013-02-08 05:15:00,14.8,11.0,30.32,WNW,298,2.0,-999.0,83,-99.99,,,0.00,weatherlink.com 1.10,2013-02-08 10:15:00,
2013-02-08 05:30:00,14.8,11.0,30.32,NW,311,2.0,-999.0,84,-99.99,,,0.00,weatherlink.com 1.10,2013-02-08 10:30:00,
2013-02-08 05:45:00,14.8,11.0,30.32,NW,311,1.0,-999.0,86,-99.99,,,0.00,weatherlink.com 1.10,2013-02-08 10:45:00,
2013-02-08 06:00:00,14.7,11.0,30.31,NW,307,2.0,-999.0,86,-99.99,,,0.00,weatherlink.com 1.10,2013-02-08 11:00:00,
2013-02-08 06:15:00,14.8,12.0,30.31,WNW,301,2.0,-999.0,87,-99.99,,,0.00,weatherlink.com 1.10,2013-02-08 11:15:00,
2013-02-08 06:30:00,14.9,12.0,30.30,WNW,301,0.0,-999.0,87,-99.99,,,0.00,weatherlink.com 1.10,2013-02-08 11:30:00,
2013-02-08 06:45:00,14.9,12.0,30.30,WNW,301,1.0,-999.0,87,-99.99,,,0.00,weatherlink.com 1.10,2013-02-08 11:45:00,
2013-02-08 07:00:00,15.0,12.0,30.30,WNW,301,3.0,-999.0,87,-99.99,,,0.00,weatherlink.com 1.10,2013-02-08 12:00:00,
2013-02-08 07:15:00,15.0,12.0,30.30,WNW,301,0.0,-999.0,88,-99.99,,,0.00,weatherlink.com 1.10,2013-02-08 12:15:00,
2013-02-08 07:30:00,15.0,12.0,30.30,WNW,301,0.0,-999.0,88,-99.99,,,0.00,weatherlink.com 1.10,2013-02-08 12:30:00,
2013-02-08 07:45:00,15.2,13.0,30.30,WNW,301,0.0,-999.0,89,-99.99,,,0.00,weatherlink.com 1.10,2013-02-08 12:45:00,
2013-02-08 08:00:00,15.5,13.0,30.30,WNW,302,0.0,-999.0,89,-99.99,,,0.00,weatherlink.com 1.10,2013-02-08 13:00:00,
2013-02-08 08:15:00,15.8,13.0,30.29,WNW,302,0.0,-999.0,88,-99.99,,,0.00,weatherlink.com 1.10,2013-02-08 13:15:00,
2013-02-08 08:30:00,16.1,14.0,30.29,WNW,302,0.0,-999.0,89,-99.99,,,0.00,weatherlink.com 1.10,2013-02-08 13:30:00,
2013-02-08 08:46:00,16.3,14.0,30.27,WNW,302,2.0,-999.0,89,-99.99,,,0.00,weatherlink.com 1.10,2013-02-08 13:46:00,
2013-02-08 09:01:00,16.6,14.0,30.26,WNW,302,1.0,-999.0,89,-99.99,,,0.00,weatherlink.com 1.10,2013-02-08 14:01:00,
2013-02-08 09:16:00,17.1,14.0,30.25,WNW,302,3.0,-999.0,89,-99.99,,,0.00,weatherlink.com 1.10,2013-02-08 14:16:00,
2013-02-08 09:31:00,17.8,15.0,30.24,WNW,302,4.0,-999.0,89,-99.99,,,0.00,weatherlink.com 1.10,2013-02-08 14:31:00,
2013-02-08 09:46:00,18.4,16.0,30.24,WNW,302,0.0,-999.0,89,-99.99,,,0.00,weatherlink.com 1.10,2013-02-08 14:46:00,
2013-02-08 10:01:00,18.8,16.0,30.23,WNW,302,2.0,-999.0,89,-99.99,,,0.00,weatherlink.com 1.10,2013-02-08 15:01:00,
2013-02-08 10:16:00,19.1,16.0,30.22,NNE,15,3.0,-999.0,89,-99.99,,,0.00,weatherlink.com 1.10,2013-02-08 15:16:00,
2013-02-08 10:31:00,19.3,17.0,30.22,NNE,28,5.0,-999.0,89,-99.99,,,0.00,weatherlink.com 1.10,2013-02-08 15:31:00,
2013-02-08 10:46:00,19.7,17.0,30.22,North,9,4.0,-999.0,89,-99.99,,,0.00,weatherlink.com 1.10,2013-02-08 15:46:00,
2013-02-08 11:01:00,20.3,18.0,30.22,NNE,21,2.0,-999.0,90,-99.99,,,0.00,weatherlink.com 1.10,2013-02-08 16:01:00,
2013-02-08 11:16:00,21.1,19.0,30.21,NNE,21,1.0,-999.0,90,-99.99,,,0.00,weatherlink.com 1.10,2013-02-08 16:16:00,
2013-02-08 11:31:00,21.8,19.0,30.19,NNE,20,3.0,-999.0,90,-99.99,,,0.00,weatherlink.com 1.10,2013-02-08 16:31:00,
2013-02-08 11:46:00,22.2,20.0,30.18,NNE,23,7.0,-999.0,90,-99.99,,,0.00,weatherlink.com 1.10,2013-02-08 16:46:00,
2013-02-08 12:01:00,22.3,20.0,30.17,North,355,6.0,-999.0,90,-99.99,,,0.00,weatherlink.com 1.10,2013-02-08 17:01:00,
2013-02-08 12:16:00,23.1,21.0,30.16,ENE,72,3.0,-999.0,90,-99.99,,,0.00,weatherlink.com 1.10,2013-02-08 17:16:00,
2013-02-08 12:31:00,25.8,23.0,30.14,ESE,120,6.0,-999.0,89,-99.99,,,0.00,weatherlink.com 1.10,2013-02-08 17:31:00,
2013-02-08 12:46:00,26.9,23.0,30.13,SE,136,6.0,-999.0,84,-99.99,,,0.00,weatherlink.com 1.10,2013-02-08 17:46:00,
2013-02-08 13:01:00,27.0,23.0,30.12,South,181,5.0,-999.0,84,-99.99,,,0.00,weatherlink.com 1.10,2013-02-08 18:01:00,
2013-02-08 13:16:00,27.4,23.0,30.11,East,101,10.0,-999.0,83,-99.99,,,0.00,weatherlink.com 1.10,2013-02-08 18:16:00,
2013-02-08 13:31:00,27.5,23.0,30.11,SE,141,3.0,-999.0,82,-99.99,,,0.00,weatherlink.com 1.10,2013-02-08 18:31:00,
2013-02-08 13:46:00,27.3,23.0,30.09,SE,140,4.0,-999.0,84,-99.99,,,0.00,weatherlink.com 1.10,2013-02-08 18:46:00,
2013-02-08 14:01:00,27.2,24.0,30.08,East,96,5.0,-999.0,86,-99.99,,,0.00,weatherlink.com 1.10,2013-02-08 19:01:00,
2013-02-08 14:16:00,27.0,23.0,30.06,ESE,103,4.0,-999.0,86,-99.99,,,0.00,weatherlink.com 1.10,2013-02-08 19:16:00,
2013-02-08 14:31:00,26.5,23.0,30.05,North,1,4.0,-999.0,87,-99.99,,,0.00,weatherlink.com 1.10,2013-02-08 19:31:00,
2013-02-08 14:46:00,24.9,22.0,30.05,NNW,347,6.0,-999.0,89,-99.99,,,0.00,weatherlink.com 1.10,2013-02-08 19:46:00,
2013-02-08 15:01:00,23.8,21.0,30.05,NW,314,8.0,-999.0,89,-99.99,,,0.00,weatherlink.com 1.10,2013-02-08 20:01:00,
2013-02-08 15:16:00,23.9,21.0,30.04,NNW,331,3.0,-999.0,90,-99.99,,,0.00,weatherlink.com 1.10,2013-02-08 20:16:00,
2013-02-08 15:32:00,24.2,22.0,30.04,NNW,344,5.0,-999.0,91,-99.99,,,0.00,weatherlink.com 1.10,2013-02-08 20:32:00,
2013-02-08 15:46:00,24.2,22.0,30.03,North,1,3.0,-999.0,90,-99.99,,,0.00,weatherlink.com 1.10,2013-02-08 20:46:00,
2013-02-08 16:01:00,24.9,22.0,30.02,WNW,291,5.0,-999.0,89,-99.99,,,0.00,weatherlink.com 1.10,2013-02-08 21:01:00,
2013-02-08 16:16:00,24.7,22.0,30.01,North,352,3.0,-999.0,89,-99.99,,,0.00,weatherlink.com 1.10,2013-02-08 21:16:00,
2013-02-08 16:31:00,24.8,22.0,30.00,NW,321,3.0,-999.0,88,-99.99,,,0.00,weatherlink.com 1.10,2013-02-08 21:31:00,
2013-02-08 16:46:00,24.6,22.0,30.00,NW,318,7.0,-999.0,88,-99.99,,,0.00,weatherlink.com 1.10,2013-02-08 21:46:00,
2013-02-08 17:01:00,24.9,22.0,30.00,NNW,341,3.0,-999.0,88,-99.99,,,0.00,weatherlink.com 1.10,2013-02-08 22:01:00,
2013-02-08 17:16:00,24.6,22.0,30.00,NW,321,2.0,-999.0,89,-99.99,,,0.00,weatherlink.com 1.10,2013-02-08 22:16:00,
2013-02-08 17:31:00,24.7,22.0,30.00,NW,321,2.0,-999.0,88,-99.99,,,0.00,weatherlink.com 1.10,2013-02-08 22:31:00,
2013-02-08 17:46:00,24.6,22.0,29.99,NNW,331,6.0,-999.0,88,-99.99,,,0.00,weatherlink.com 1.10,2013-02-08 22:46:00,
2013-02-08 18:01:00,25.3,21.0,29.99,WNW,287,1.0,-999.0,85,-99.99,,,0.00,weatherlink.com 1.10,2013-02-08 23:01:00,
2013-02-08 18:16:00,25.8,21.0,29.99,North,350,2.0,-999.0,83,-99.99,,,0.00,weatherlink.com 1.10,2013-02-08 23:16:00,
2013-02-08 18:31:00,25.8,21.0,29.99,SSW,210,2.0,-999.0,82,-99.99,,,0.00,weatherlink.com 1.10,2013-02-08 23:31:00,
2013-02-08 18:46:00,24.7,22.0,29.99,NW,309,2.0,-999.0,88,-99.99,,,0.00,weatherlink.com 1.10,2013-02-08 23:46:00,
2013-02-08 19:01:00,25.1,21.0,29.98,NW,321,6.0,-999.0,85,-99.99,,,0.00,weatherlink.com 1.10,2013-02-09 00:01:00,
2013-02-08 19:16:00,23.9,21.0,29.98,NW,308,2.0,-999.0,89,-99.99,,,0.00,weatherlink.com 1.10,2013-02-09 00:16:00,
2013-02-08 19:31:00,23.6,21.0,29.98,WNW,288,6.0,-999.0,91,-99.99,,,0.00,weatherlink.com 1.10,2013-02-09 00:31:00,
2013-02-08 19:46:00,23.7,22.0,29.98,West,276,6.0,-999.0,91,-99.99,,,0.00,weatherlink.com 1.10,2013-02-09 00:46:00,
2013-02-08 20:01:00,23.8,22.0,29.97,WNW,286,3.0,-999.0,91,-99.99,,,0.00,weatherlink.com 1.10,2013-02-09 01:01:00,
2013-02-08 20:16:00,23.7,22.0,29.96,North,4,3.0,-999.0,91,-99.99,,,0.00,weatherlink.com 1.10,2013-02-09 01:16:00,
2013-02-08 20:31:00,23.6,21.0,29.95,North,1,6.0,-999.0,91,-99.99,,,0.00,weatherlink.com 1.10,2013-02-09 01:31:00,
2013-02-08 20:46:00,23.4,21.0,29.95,North,356,9.0,-999.0,91,-99.99,,,0.00,weatherlink.com 1.10,2013-02-09 01:46:00,
2013-02-08 21:01:00,23.5,21.0,29.95,North,7,5.0,-999.0,91,-99.99,,,0.00,weatherlink.com 1.10,2013-02-09 02:01:00,
2013-02-08 21:16:00,23.5,21.0,29.94,North,9,8.0,-999.0,91,-99.99,,,0.00,weatherlink.com 1.10,2013-02-09 02:16:00,
2013-02-08 21:31:00,23.6,21.0,29.94,NNE,13,10.0,-999.0,91,-99.99,,,0.00,weatherlink.com 1.10,2013-02-09 02:31:00,
2013-02-08 21:46:00,23.6,21.0,29.93,North,1,4.0,-999.0,91,-99.99,,,0.00,weatherlink.com 1.10,2013-02-09 02:46:00,
2013-02-08 22:02:00,23.7,21.0,29.93,North,11,7.0,-999.0,90,-99.99,,,0.00,weatherlink.com 1.10,2013-02-09 03:02:00,
2013-02-08 22:17:00,23.9,21.0,29.93,North,356,6.0,-999.0,90,-99.99,,,0.00,weatherlink.com 1.10,2013-02-09 03:17:00,
2013-02-08 22:32:00,23.7,22.0,29.92,North,356,5.0,-999.0,91,-99.99,,,0.00,weatherlink.com 1.10,2013-02-09 03:32:00,
2013-02-08 22:47:00,23.5,21.0,29.92,North,7,6.0,-999.0,91,-99.99,,,0.00,weatherlink.com 1.10,2013-02-09 03:47:00,
2013-02-08 23:02:00,23.3,21.0,29.91,North,0,11.0,-999.0,90,-99.99,,,0.00,weatherlink.com 1.10,2013-02-09 04:02:00,
2013-02-08 23:17:00,22.9,20.0,29.90,NNE,20,9.0,-999.0,90,-99.99,,,0.00,weatherlink.com 1.10,2013-02-09 04:17:00,
2013-02-08 23:32:00,22.4,20.0,29.90,North,0,8.0,-999.0,89,-99.99,,,0.00,weatherlink.com 1.10,2013-02-09 04:32:00,
2013-02-08 23:47:00,22.4,20.0,29.90,North,0,10.0,-999.0,90,-99.99,,,0.00,weatherlink.com 1.10,2013-02-09 04:47:00,